Las Vegas, NV

10:04 AM PDT on September 22, 2017 (GMT -0700)
McCarran International

Weather History for KLAS - April, 2013

Change the Weather History Date:

Friday, April 19, 2013

  Actual Average Record
Temperature  
Mean Temperature 63 °F 68 °F  
Max Temperature 77 °F 79 °F 98 °F (1938)
Min Temperature 49 °F 57 °F 35 °F (1968)
Degree Days  
Heating Degree Days 2 2  
Month to date heating degree days 34 52  
Since 1 July heating degree days 1757 1932  
Cooling Degree Days 0 5  
Month to date cooling degree days 75 60  
Year to date cooling degree days 161 91  
Growing Degree Days 12 (Base 50)    
Moisture  
Dew Point 11 °F    
Average Humidity 14    
Maximum Humidity 21    
Minimum Humidity 7    
Precipitation  
Precipitation 0.00 in 0.00 in 0.31 in (1952)
Month to date precipitation 0.03 0.11  
Year to date precipitation 0.61 1.85  
Snow  
Snow 0.00 in 0.00 in 0.00 in ()
Month to date snowfall 0.0 0.0  
Since 1 July snowfall T 0.3  
Snow Depth 0.00 in    
Sea Level Pressure  
Sea Level Pressure 30.05 in    
Wind  
Wind Speed 7 mph (South)    
Max Wind Speed 15 mph    
Max Gust Speed 20 mph    
Visibility 10 miles    
Events      
T = Trace of Precipitation, MM = Missing Value Source: NWS Daily Summary

Daily Weather History Graph

Daily Weather History Graph

Search for Another Location

Airport or City:

Trip Planner

Search our weather history database for the weather conditions in past years. The results will help you decide how hot, cold, wet, or windy it might be!

Date:

Astronomy

Apr. 19, 2013 Rise Set
Actual Time 6:01 AM PDT 7:18 PM PDT
Civil Twilight 5:35 AM PDT 7:44 PM PDT
Nautical Twilight 5:03 AM PDT 8:16 PM PDT
Astronomical Twilight 4:30 AM PDT 8:50 PM PDT
Moon 1:17 PM PDT (4/19) 2:08 AM PDT (4/19)
Length of Visible Light 14h 09m
Length of Day
13h 16m
Waxing Gibbous, 62% of the Moon is Illuminated
Apr 19
Waxing Gibbous
Apr 25
Full
May 2
Last Quarter
May 9
New
May 17
First Quarter

Hourly Weather History & Observations

Time (PDT) Temp. Dew Point Humidity Pressure Visibility Wind Dir Wind Speed Gust Speed Precip Events Conditions
12:56 AM 55.0 °F 9.0 °F 16% 30.17 in 10.0 mi SW 6.9 mph - N/A   Clear
1:56 AM 54.0 °F 10.0 °F 17% 30.17 in 10.0 mi SSW 6.9 mph - N/A   Clear
2:56 AM 52.0 °F 10.9 °F 19% 30.17 in 10.0 mi SW 6.9 mph - N/A   Clear
3:56 AM 51.1 °F 10.0 °F 19% 30.17 in 10.0 mi SSW 6.9 mph - N/A   Clear
4:56 AM 50.0 °F 10.9 °F 21% 30.17 in 10.0 mi SSW 9.2 mph - N/A   Clear
5:56 AM 50.0 °F 12.0 °F 22% 30.16 in 10.0 mi SSW 8.1 mph - N/A   Clear
6:56 AM 52.0 °F 12.0 °F 20% 30.19 in 10.0 mi SSW 5.8 mph - N/A   Clear
7:56 AM 55.0 °F 12.0 °F 18% 30.20 in 10.0 mi South 5.8 mph - N/A   Clear
8:56 AM 60.1 °F 12.9 °F 16% 30.19 in 10.0 mi SSE 3.5 mph - N/A   Clear
9:56 AM 62.1 °F 12.9 °F 15% 30.17 in 10.0 mi SSE 3.5 mph - N/A   Partly Cloudy
10:56 AM 64.9 °F 14.0 °F 14% 30.16 in 10.0 mi Calm Calm - N/A   Partly Cloudy
11:56 AM 68.0 °F 10.9 °F 11% 30.13 in 10.0 mi South 5.8 mph - N/A   Partly Cloudy
12:56 PM 72.0 °F 10.9 °F 10% 30.09 in 10.0 mi Variable 4.6 mph - N/A   Scattered Clouds
1:56 PM 73.0 °F 10.0 °F 9% 30.05 in 10.0 mi Variable 3.5 mph - N/A   Mostly Cloudy
2:56 PM 75.0 °F 10.0 °F 8% 30.00 in 10.0 mi SE 5.8 mph - N/A   Mostly Cloudy
3:56 PM 75.9 °F 9.0 °F 8% 29.96 in 10.0 mi ESE 4.6 mph - N/A   Mostly Cloudy
4:56 PM 75.9 °F 10.0 °F 8% 29.93 in 10.0 mi ESE 4.6 mph - N/A   Mostly Cloudy
5:56 PM 75.9 °F 10.9 °F 8% 29.90 in 10.0 mi Variable 5.8 mph - N/A   Partly Cloudy
6:56 PM 77.0 °F 10.9 °F 8% 29.87 in 10.0 mi SW 12.7 mph - N/A   Partly Cloudy
7:56 PM 73.9 °F 10.0 °F 9% 29.88 in 10.0 mi SSW 11.5 mph - N/A   Clear
8:56 PM 71.1 °F 10.0 °F 9% 29.87 in 10.0 mi SSW 10.4 mph - N/A   Clear
9:56 PM 69.1 °F 10.0 °F 10% 29.87 in 10.0 mi SSW 10.4 mph - N/A   Clear
10:56 PM 68.0 °F 9.0 °F 10% 29.85 in 10.0 mi SSW 11.5 mph - N/A   Clear
11:56 PM 66.9 °F 10.9 °F 11% 29.86 in 10.0 mi SW 5.8 mph - N/A   Clear